Regional Weather Roundup
Issued by NWS

Home | Current Version | Previous Version | Graphics & Text | Print | Product List | Glossary On
Versions: 1 2 3 4 5 6 7 8 9 10 11 12 13 14 15 16 17 18 19 20 21 22 23 24 25 26 27 28 29 30 31 32 33 34 35 36 37 38 39 40 41 42 43 44 45 46 47 48 49 50
000
ASUS43 KFSD 222010
RWRSD

WEATHER ROUNDUP FOR SOUTH DAKOTA
NATIONAL WEATHER SERVICE SIOUX FALLS SD
300 PM CDT SAT JUL 22 2017

NOTE: "FAIR" INDICATES FEW OR NO CLOUDS BELOW 12,000 FEET WITH NO
SIGNIFICANT WEATHER AND/OR OBSTRUCTIONS TO VISIBILITY.


SDZ001>005-009-010-012>017-222100-
NORTHWEST AND NORTH CENTRAL SOUTH DAKOTA

CITY           SKY/WX    TMP DP  RH WIND       PRES   REMARKS
BUFFALO          N/A     87  39  18 W21       30.01F
FAITH            N/A     90  36  14 NW13G25   30.02F
MOBRIDGE       SUNNY     89  52  28 NW18G26   29.93F
$$

SDZ012>016-024>037-041>051-057-063-072>074-222100-
SOUTHWEST AND SOUTH CENTRAL SOUTH DAKOTA

CITY           SKY/WX    TMP DP  RH WIND       PRES   REMARKS
RAPID CTY ARPT SUNNY     89  39  17 N10       30.07S
PIERRE         SUNNY     94  41  16 N6        29.95S
CUSTER         MOSUNNY   80  37  21 E14G23    30.23R
ELLSWORTH AFB  SUNNY     89  41  18 N10       30.07F
PHILIP         SUNNY     95  38  13 NW7       29.98F
PINE RIDGE     CLOUDY    83  55  38 E7        30.08S
SPEARFISH      LGT RAIN  86  37  17 VRB3G13   30.13F
WINNER         FAIR      94  58  29 VRB5      29.99F
$$

SDZ004>011-016>023-039-040-222100-
NORTHEAST SOUTH DAKOTA

CITY           SKY/WX    TMP DP  RH WIND       PRES   REMARKS
ABERDEEN       SUNNY     89  57  33 NW9       29.91S
WATERTOWN      SUNNY     85  58  39 NW13      29.92R
BROOKINGS      MOSUNNY   85  67  54 NW13      29.93S
SISSETON         N/A     88  61  40 NW10G20   29.87S
$$

SDZ017-020-022-023-036>040-048>070-222100-
SOUTHEAST SOUTH DAKOTA

CITY           SKY/WX    TMP DP  RH WIND       PRES   REMARKS
SIOUX FALLS    CLOUDY    86  75  69 W10       29.92S HX  95
HURON          SUNNY     88  62  41 NW8       29.92S
CHAMBERLAIN    CLOUDY    95  51  22 SW8       29.96S
MITCHELL       PTSUNNY   86  70  58 NW8       29.94S
YANKTON        PTSUNNY   83  72  69 W9        29.94S
$$

ABBREVIATIONS USED IN REMARKS
   TC - TEMPERATURE IN CELSIUS
  WCI - WIND CHILL INDEX
   HX - HEAT INDEX
  VSB - VISIBILITY





USA.gov is the U.S. government's official web portal to all federal, state and local government web resources and services.